This is the latest recevied weather packets stored in our database for station/object WB0RXX. If no packets are shown the sender has not sent any weather packets the latest 10 day(s).
| Time | Temp. | Humidity | Pressure | Rain* | Wind** | Luminosity | Snow |
|---|---|---|---|---|---|---|---|
| 1777912205 | 12.78° C | 45% | 1003.1 hPa | 0 mm | - | - | - |
| 1777911603 | 12.78° C | 45% | 1003 hPa | 0 mm | - | - | - |
| 1777911003 | 13.33° C | 46% | 1002.8 hPa | 0 mm | - | - | - |
| 1777910403 | 13.33° C | 46% | 1002.8 hPa | 0 mm | - | - | - |
| 1777909818 | 13.33° C | 46% | 1002.7 hPa | 0 mm | - | - | - |
| 1777909205 | 13.33° C | 45% | 1002.6 hPa | 0 mm | - | - | - |
| 1777908604 | 13.89° C | 45% | 1002.5 hPa | 0 mm | - | - | - |
| 1777908003 | 13.89° C | 53% | 1002.3 hPa | 0 mm | - | - | - |
| 1777907404 | 13.33° C | 54% | 1002.3 hPa | 0 mm | - | - | - |
| 1777906803 | 13.33° C | 55% | 1002.3 hPa | 0 mm | - | - | - |
| 1777906204 | 13.33° C | 57% | 1002.1 hPa | 0 mm | - | - | - |
| 1777905620 | 13.33° C | 57% | 1001.8 hPa | 0 mm | - | - | - |
| 1777905004 | 13.33° C | 57% | 1001.7 hPa | 0 mm | - | - | - |
| 1777904403 | 13.33° C | 57% | 1001.8 hPa | 0 mm | - | - | - |
| 1777903804 | 13.33° C | 58% | 1001.6 hPa | 0 mm | - | - | - |
| 1777903220 | 12.78° C | 59% | 1001.5 hPa | 0 mm | - | - | - |
| 1777902603 | 12.78° C | 59% | 1001.4 hPa | 0 mm | - | - | - |
| 1777902003 | 12.22° C | 61% | 1001.5 hPa | 0 mm | - | - | - |
| 1777901404 | 12.22° C | 60% | 1001.4 hPa | 0 mm | - | - | - |
| 1777900803 | 12.22° C | 62% | 1001.2 hPa | 0 mm | - | - | - |
| 1777900202 | 11.67° C | 66% | 1001.2 hPa | 0 mm | - | - | - |
| 1777899609 | 11.67° C | 67% | 1001.3 hPa | 0 mm | - | - | - |
| 1777899004 | 11.11° C | 67% | 1001.2 hPa | 0 mm | - | - | - |
| 1777898405 | 11.11° C | 68% | 1001.2 hPa | 0 mm | - | - | - |
| 1777897803 | 11.11° C | 68% | 1001.1 hPa | 0 mm | - | - | - |
* Rain latest hour (hover to see other rain measurements)
** Current wind speed in m/s (hover to see current wind gust speed)